FENGYUN 1C DEB

Satellite information

Favourite Embed

Satellite Type and Status

DEBRISIN ORBIT

Key statistics

Satellite FENGYUN 1C DEB at a glance.

Uptime

9665

Days in orbit

Revolutions

≈ 14.1

Per day

Orbit

SSO

Sun Synchronous Orbit

Inclination

99.5

Latest

Satellite identification and parameters

Extended collection of information and parameters for FENGYUN 1C DEB.

Object identification

Identified? True

Debris? True

Object name: FENGYUN 1C DEB

International designator: 1999-025GK

Object number (NORAD): 29889

Object ID (CCSDS): 29889

Country: PEOPLES REPUBLIC OF CHINA (PRC)

Current information (Y/N): Y

RCS size: SMALL

Orbital parameters

Period: 101.883 minutes

Inclination: 99.4743 deg

SMA: 7225.944 km

Apoapsis: 959.623 km

Periapsis: 735.996 km

RAAN: 52.3566 deg

Eccentricy: 0.01547387

Argument of periapsis: 174.6941 deg

Mean anomaly: 306.2121 deg

Mean motion: 14.13386193 rev/day

Mean motion (dot): 0.00001804 rev/day2

B* drag term: 0.00087974189 1/REarth

Two-line elements (TLE)

Creation date: Oct. 25, 2025, 3:11 a.m.

Reference frame: TEME

Reference center: EARTH

Epoch: Oct. 24, 2025, 8:30 p.m. UTC

TLE line 0: 0 FENGYUN 1C DEB

TLE line 1: 1 29889U 99025GK 25297.85432293 .00001804 00000-0 87974-3 0 9993

TLE line 2: 2 29889 99.4743 52.3566 0154739 174.6941 306.2121 14.13386193966287

Live tracking on map

Real-time ground track for satellite FENGYUN 1C DEB.

In-orbit conjunctions

A list of the most updated potential collisions computed for object FENGYUN 1C DEB.

Target Orbit TCA Probability of collision Miss distance Type
NOAA 16 DEB SSO 2025-01-31 19:20:01 0.0001450152 128.0 (m) DEBRIS
FENGYUN 1C DEB SSO 2024-10-03 02:39:58 0.0002532291 127.0 (m) DEBRIS

Associated space launch

Chinese polar orbiting meteorological satellite

FENGYUN 1C DEB was lifted into orbit during the mission ‘Long March 4B | Feng Yun 1C’, on board a Long March 4B space rocket.

The launch took place on May 10, 1999, 1:33 a.m. from Launch Complex 7.

For more information about the launch, click the button.

Launch to space Long March 4B | Feng Yun 1C
Long March 4B | Feng Yun 1C

Agency: N/A

Status: Launch Successful

Launch date: May 10, 1999, 1:33 a.m. UTC

Rocket: Long March 4B

Launch pad: Launch Complex 7

Location: Taiyuan Satellite Launch Center, People's Republic of China

...

Latest news about this satellite

There are no fresh news available about this satellite. Check back as we update our databases every day.


Newsletter sign-up

Weekly statistics, charts and insights to help you stay on top of the space industry.